Find Starlink 30171

NORAD ID: 57469 Int'l Des: 2023-107 Owner: SPXS Country: US Constellation: starlink operational
LEOCIRCULAR

当前视图

正在加载3D地球...

About Starlink 30171

Starlink 30171 (NORAD 57469) is a starlink constellation satellite (v2 mini) launched Jul 28, 2023 by SPXS of US. It operates in LEO, CIRCULAR orbit with a mass of 730.00 kg.

关于 Starlink 30171

正在加载描述...

即将过境

Passes for default location (London). Set your location on the main map for personalized predictions.

高度历史

Loading altitude history...

两行轨道根数

1 57469U 23107N 26174.84962538 .00001034 00000-0 47097-4 0 9998
2 57469 43.0063 99.9142 0001412 261.9545 98.1147 15.27579846161342
Epoch: Jun 23, 2026 • Age: 30 hours

当前状态

高度 484.7 km
速度 7.63 km/s
星下点 31.79°N, 175.43°W
发射日期 Jul 28, 2023
运行时间 2.9 years
类型 internet

技术详情

分类 Payload
质量 730.00 kg
干质量 700.00 kg
总质量 730.00 kg
长度 0.30 m
直径 4.10 m
跨度 29.00 m
形状 Box + pan
制造商 SPXS
平台类型 Starlink V2M
阶段状态 In Orbit
所有者/国家 SPXS/US

Most Searched